Regional Weather Roundup
Issued by NWS

Home | Current Version | Previous Version | Graphics & Text | Print | Product List | Glossary On
Versions: 1 2 3 4 5 6 7 8 9 10 11 12 13 14 15 16 17 18 19 20 21 22 23 24 25 26 27 28 29 30 31 32 33 34 35 36 37 38 39 40 41 42 43 44 45 46 47 48 49 50
000
ASUS43 KIND 222009
RWRIN

WEATHER ROUNDUP FOR INDIANA
NATIONAL WEATHER SERVICE INDIANAPOLIS IN
300 PM EST WED NOV 22 2017

NOTE: "FAIR" INDICATES FEW OR NO CLOUDS BELOW 12,000 FEET WITH NO
SIGNIFICANT WEATHER AND/OR OBSTRUCTIONS TO VISIBILITY.

* - STATION DOES NOT REPORT WEATHER SUCH AS PRECIPITATION OR FOG.

+ - STATION NOT QUALITY CONTROLLED BY THE NATIONAL WEATHER SERVICE.
    USE DATA WITH CAUTION...ESPECIALLY DEWPOINT AND RELATIVE
    HUMIDITY OBSERVATIONS.

INZ001>003-010>013-019-020-222100-
NORTHWEST INDIANA

CITY           SKY/WX    TMP DP  RH WIND       PRES   REMARKS
GARY /AIRPORT/ MOSUNNY   36  10  35 W9        30.30F WCI  29
KNOX *+        PTSUNNY   36  23  60 NW6       30.28F WCI  31
LA PORTE +     SUNNY     35  23  62 NW5       30.28F WCI  31
MICHIGAN CITY+ MOSUNNY   34  23  64 W7        30.29F WCI  28
MONTICELLO +   PTSUNNY   36  21  55 W7        30.29F WCI  30
RENSSELAER +   SUNNY     36  14  41 SW7       30.29F WCI  30
VALPARAISO     SUNNY     38  20  48 CALM      30.27F

$$

LMZ046-743>745-222100-
SOUTHERN LAKE MICHIGAN

STATION/POSITION TIME  TEMP    WIND        PRES    WAVE
                       AIR SEA DIR/SP/G            HT
                 (UTC) (F)     (DEG/KT/KT) (MB)    (FT)
BURNS HARBOR     1940   33     300/  7/ 11 1026.1F
MICHIGAN CITY    1940   32     240/  7/  9   N/A

$$

INZ004-005-014>016-021>024-222100-
NORTH CENTRAL INDIANA

CITY           SKY/WX    TMP DP  RH WIND       PRES   REMARKS
ELKHART        CLOUDY    36  21  55 W12       30.26F WCI  27
GOSHEN         CLOUDY    34  19  54 NW5       30.26F WCI  30
LOGANSPORT +   PTSUNNY   36  23  60 CALM      30.29F
PERU/GRISSOM   MOSUNNY   35  22  59 NW6       30.27F WCI  30
ROCHESTER +    SUNNY     37  23  56 NW5       30.27F WCI  34
SOUTH BEND     CLOUDY    34  23  64 W7        30.28F WCI  28
WARSAW +       CLOUDY    34  23  64 N5        30.26F WCI  30

$$

INZ006>009-017-018-025>027-222100-
NORTHEAST INDIANA

CITY           SKY/WX    TMP DP  RH WIND       PRES   REMARKS
AUBURN +       SUNNY     34  19  55 W7        30.27F WCI  28
FORT WAYNE     PTSUNNY   39  23  52 NW8       30.28F WCI  33
HUNTINGTON +   PTSUNNY   35  20  56 SW6       30.27F WCI  29
KENDALLVILLE + MOSUNNY   34  20  58 N6        30.26F WCI  29

$$

INZ028-029-035-036-043>045-051>053-222100-
WEST CENTRAL INDIANA

CITY           SKY/WX    TMP DP  RH WIND       PRES   REMARKS
CRAWFORDSVL +  SUNNY     34  23  64 NW5         N/A  WCI  30
GREENCASTLE +  MOSUNNY   37  23  56 N3        30.29S
LAFAYETTE      MOSUNNY   36  21  54 N6        30.30F WCI  31
TERRE HAUTE    SUNNY     39  22  50 VRB6      30.31F WCI  35

$$

INZ030>032-037>040-046>048-054>057-064-065-222100-
CENTRAL INDIANA

CITY           SKY/WX    TMP DP  RH WIND       PRES   REMARKS
CP ATTERBURY + SUNNY     39  23  52 N7        30.29F WCI  34
FISHERS *+     SUNNY     37  27  65 NW3       30.28
FRANKFORT +    PTSUNNY   38  26  60 N5        30.30F WCI  35
GREENWOOD *+   SUNNY     41  23  48 CALM      30.28F
INDIANAPOLIS   MOSUNNY   39  23  52 W5        30.28F WCI  36
-EAGLE CREEK   SUNNY     37  22  54 NW8       30.28F WCI  31
KOKOMO +       MOSUNNY   35  23  61 W6        30.29F WCI  30
MARION +       CLOUDY    34  23  65 NW3       30.29S
MT COMFORT *+  SUNNY     37  27  65 NW7       30.27F WCI  32
SHELBYVILLE    SUNNY     40  21  46 NW6       30.26F WCI  36
ZIONSVILLE +   MOSUNNY   35  22  61 W6        30.28F WCI  29

$$

INZ033-034-041-042-049-050-058-059-222100-
EAST CENTRAL INDIANA

CITY           SKY/WX    TMP DP  RH WIND       PRES   REMARKS
MUNCIE         PTSUNNY   39  23  52 W8        30.26F WCI  33
RICHMOND +     CLOUDY    34  25  69 N6        30.25F WCI  29

$$

INZ060-061-067>069-081>083-085>088-222100-
SOUTHWEST INDIANA

CITY           SKY/WX    TMP DP  RH WIND       PRES   REMARKS
EVANSVILLE     SUNNY     41  23  48 NE8       30.30F
HUNTINGBURG +  SUNNY     39  23  52 NW6       30.29F WCI  35
WASHINGTON +   SUNNY     39  19  46 CALM      30.29F

$$

INZ062-063-066-070>080-084-089>092-222100-
SOUTH CENTRAL AND SOUTHEAST INDIANA

CITY           SKY/WX    TMP DP  RH WIND       PRES   REMARKS
BEDFORD +      SUNNY     39  19  45 NW3       30.26F
BLOOMINGTON    SUNNY     40  22  48 N7        30.27F WCI  35
MADISON *+     SUNNY     41  23  48 CALM      30.29R
NORTH VERNON + SUNNY     37  23  56 N8        30.28F WCI  31
SEYMOUR +      SUNNY     41  23  48 N8        30.28F

$$





USA.gov is the U.S. government's official web portal to all federal, state and local government web resources and services.